[[{"header":{"parameterUnit":"m.s-1","parameterCategory":1,"la1":30.2992,"la2":30.254,"lo1":-89.0895,"lo2":-89.0443,"dy":0.0025,"dx":0.0025,"nx":19,"ny":19,"refTime":"2026-04-09T09:00:00:Z","depth":0,"parameterNumber":2,"parameterNumberName":"U-component_of_WINDS"},"data":[0,0,0,-5.7535,-5.7537,-5.7604,-5.7604,-5.7735,-5.7736,0,0,0,0,0,0,0,0,0,0,0,-5.7539,-5.7541,-5.7534,-5.7537,-5.7604,-5.7604,-5.7734,-5.7736,0,0,0,0,0,0,0,0,0,0,0,-5.7539,-5.7541,-5.7543,-5.7537,-5.7604,-5.7604,-5.7734,-5.7668,0,0,0,0,0,0,0,0,0,0,-5.7595,-5.7623,-5.754,-5.7543,-5.7538,-5.7604,-5.7604,-5.7664,-5.7672,-5.7723,0,-5.7772,0,-5.7757,-5.7748,-5.7748,0,0,0,-5.7519,-5.7616,-5.7612,-5.7543,-5.7539,-5.7604,-5.7569,-5.7668,-5.7677,-5.7734,-5.7774,-5.7777,-5.7759,-5.7749,-5.775,-5.8099,-5.8102,0,0,-5.7515,-5.7565,-5.7606,-5.7619,-5.761,-5.7567,-5.7571,-5.7673,-5.7721,-5.7774,-5.778,-5.7761,-5.775,-5.7751,-5.8097,-5.81,0,0,0,-5.7517,-5.7563,-5.7555,-5.7615,-5.7624,-5.7569,-5.7574,-5.7716,-5.7709,-5.7781,-5.7763,-5.7751,-5.7753,-5.8094,-5.8098,-5.8269,0,0,0,-5.7513,-5.7564,-5.7555,-5.7586,-5.7623,-5.767,-5.7616,-5.7702,-5.7712,-5.7762,-5.7751,-5.7755,-5.8091,-5.8096,-5.8258,-5.8341,0,0,0,-5.7527,-5.7565,-5.7583,-5.7589,-5.7619,-5.7667,-5.7666,-5.7703,-5.7702,-5.7748,-5.7755,-5.8089,-5.8095,-5.8248,-5.8325,-5.8448,0,0,0,-5.7555,-5.7734,-5.7587,-5.778,-5.7619,-5.7773,-5.7665,-5.7777,-5.7837,-5.7752,-5.8091,-5.8097,-5.8245,-5.8315,-5.8438,-5.856,-5.8615,0,0,-5.7809,-5.7766,-5.7876,-5.7746,-5.7939,-5.7758,-5.7976,-5.7984,-5.7944,-5.805,-5.8058,-5.8261,-5.8324,-5.8446,-5.891,-5.8955,0,0,0,-5.7973,-5.8053,-5.8093,-5.8152,-5.8163,-5.818,-5.8149,-5.8153,-5.8241,-5.8008,-5.8338,-5.8373,-5.8443,-5.8499,-5.8537,-5.8594,-5.8125,-5.8125,-5.8124,-5.8402,-5.8341,-5.8519,-5.8467,-5.8527,-5.8495,-5.8538,-5.8538,-5.8458,-5.8538,-5.8568,-5.8857,-5.8925,-5.8953,-5.9013,-5.8628,-5.8629,-5.863,-5.863,-5.8768,-5.8871,-5.8763,-5.8896,-5.8832,-5.8944,-5.8923,-5.8863,-5.896,-5.8828,-5.8887,-5.8748,-5.9004,-5.9053,-5.8642,-5.864,-5.8639,-5.8638,-5.8637,-5.9041,-5.908,-5.9082,-5.9163,-5.9234,-5.9176,-5.9275,-5.9212,-5.9155,-5.9213,-5.9239,-5.9236,-5.9225,-5.923,-5.9231,-5.9232,-5.9233,-5.9234,-5.9234,-5.9323,-5.932,-5.9409,-5.9439,-5.947,-5.9504,-5.9478,-5.9508,-5.9525,-5.9472,-5.9472,-5.9387,-5.904,-5.8954,-5.9249,-5.9247,-5.9245,-5.9243,-5.9242,-5.9714,-5.9617,-5.9755,-5.9788,-5.9818,-5.9894,-5.9815,-5.9883,-5.9899,-5.995,-5.9853,-5.9607,-5.9559,-5.9528,-5.9457,-5.9865,-5.9864,-5.9865,-5.9865,-5.9945,-5.9915,-6.0044,-6.01,-6.0148,-6.0091,-6.0253,-6.0236,-6.0203,-6.021,-6.0143,-6.0043,-6.0015,-5.9984,-5.9943,-5.9875,-6.0381,-6.0381,-6.0382,-6.0182,-6.0155,-6.0303,-6.0268,-6.0289,-6.0309,-6.046,-6.0531,-6.0474,-6.0401,-6.0215,-6.0193,-6.0031,-5.9982,-5.9903,-5.9841,-5.9716,0,0]},{"header":{"parameterUnit":"m.s-1","parameterCategory":1,"la1":30.2992,"la2":30.254,"lo1":-89.0895,"lo2":-89.0443,"dy":0.0025,"dx":0.0025,"nx":19,"ny":19,"refTime":"2026-04-09T09:00:00:Z","depth":0,"parameterNumber":3,"parameterNumberName":"V-component_of_WINDS"},"data":[0,0,0,1.419,1.4189,1.4166,1.4166,1.4112,1.4111,0,0,0,0,0,0,0,0,0,0,0,1.4184,1.4183,1.419,1.4189,1.4166,1.4166,1.4112,1.4111,0,0,0,0,0,0,0,0,0,0,0,1.4185,1.4184,1.4183,1.4189,1.4166,1.4166,1.4112,1.4138,0,0,0,0,0,0,0,0,0,0,1.4164,1.4147,1.4184,1.4183,1.4189,1.4166,1.4166,1.4139,1.4136,1.4113,0,1.4091,0,1.4101,1.4106,1.4106,0,0,0,1.4197,1.415,1.4156,1.4183,1.4188,1.4166,1.4179,1.4138,1.4134,1.4109,1.4091,1.4089,1.41,1.4106,1.4106,1.395,1.3948,0,0,1.4199,1.4172,1.4158,1.4153,1.4157,1.4179,1.4178,1.4136,1.4113,1.409,1.4088,1.4099,1.4105,1.4105,1.3951,1.3949,0,0,0,1.4197,1.4173,1.418,1.4154,1.4152,1.4178,1.4177,1.4115,1.412,1.4088,1.4098,1.4105,1.4104,1.3952,1.395,1.3868,0,0,0,1.4198,1.4172,1.418,1.4164,1.4152,1.4134,1.4156,1.4123,1.4119,1.4098,1.4105,1.4103,1.3953,1.3951,1.3873,1.3832,0,0,0,1.419,1.4171,1.4164,1.4162,1.4152,1.4135,1.4138,1.4123,1.4125,1.4106,1.4103,1.3954,1.3951,1.3878,1.384,1.3782,0,0,0,1.4173,1.409,1.4162,1.4074,1.4152,1.4086,1.4138,1.409,1.4065,1.4105,1.3953,1.395,1.3879,1.3844,1.3787,1.3727,1.3701,0,0,1.4054,1.4075,1.4025,1.4089,1.4004,1.4092,1.3995,1.3995,1.4016,1.397,1.3967,1.3872,1.384,1.3783,1.3568,1.3547,0,0,0,1.3979,1.3942,1.3926,1.3902,1.3902,1.3898,1.3917,1.3918,1.3881,1.3988,1.3838,1.382,1.3788,1.376,1.3742,1.3715,1.3938,1.3938,1.3938,1.3768,1.3803,1.3723,1.3755,1.3731,1.3753,1.3736,1.374,1.378,1.3744,1.3729,1.3595,1.3562,1.3548,1.352,1.3704,1.3703,1.3703,1.3703,1.3595,1.3547,1.3607,1.3549,1.3586,1.3538,1.3556,1.3587,1.3546,1.3609,1.3582,1.3644,1.3524,1.3501,1.3697,1.3698,1.3699,1.3699,1.37,1.3458,1.3441,1.3446,1.3416,1.3389,1.3425,1.3384,1.3419,1.3451,1.3425,1.3412,1.3414,1.3417,1.3418,1.3417,1.3417,1.3416,1.3416,1.3416,1.3312,1.3321,1.3283,1.3279,1.3269,1.326,1.3284,1.3274,1.3272,1.33,1.33,1.3342,1.3508,1.3547,1.3408,1.341,1.3411,1.3411,1.3412,1.3116,1.3167,1.3108,1.3098,1.3097,1.3067,1.3116,1.3093,1.3091,1.3069,1.3119,1.3237,1.3259,1.3274,1.3306,1.3113,1.3113,1.3113,1.3113,1.2998,1.3016,1.2964,1.2946,1.2933,1.2971,1.2901,1.2919,1.2945,1.2945,1.298,1.3027,1.304,1.3055,1.3074,1.3104,1.2865,1.2865,1.2864,1.2879,1.2897,1.283,1.286,1.2863,1.2863,1.2799,1.2774,1.2814,1.2855,1.2946,1.2956,1.3033,1.3056,1.3094,1.3123,1.3179,0,0]}]]